This is the latest recevied weather packets stored in our database for station/object AE6DC-5. If no packets are shown the sender has not sent any weather packets the latest 10 day(s).
| Time | Temp. | Humidity | Pressure | Rain* | Wind** | Luminosity | Snow |
|---|---|---|---|---|---|---|---|
| 1777663218 | 12.22° C | 91% | 1016.2 hPa | 0 mm | - | 273 W/m² | - |
| 1777662498 | 12.22° C | 92% | 1016.1 hPa | 0 mm | - | 341 W/m² | - |
| 1777662138 | 12.22° C | 92% | 1016.3 hPa | 0 mm | - | 294 W/m² | - |
| 1777660701 | 12.22° C | 92% | 1016.2 hPa | 0 mm | - | 295 W/m² | - |
| 1777658536 | 12.22° C | 93% | 1016.2 hPa | 0 mm | - | 239 W/m² | - |
| 1777658179 | 12.22° C | 93% | 1016.3 hPa | 0 mm | - | 204 W/m² | - |
| 1777657099 | 12.22° C | 93% | 1016.3 hPa | 0 mm | - | 191 W/m² | - |
| 1777655657 | 11.67° C | 93% | 1016.4 hPa | 0 mm | - | 135 W/m² | - |
| 1777651701 | 12.22° C | 93% | 1016 hPa | 0 mm | - | 93 W/m² | - |
| 1777645216 | 11.67° C | 93% | 1015.4 hPa | 0 mm | - | 24 W/m² | - |
| 1777643800 | 11.67° C | 93% | 1015.1 hPa | 0 mm | - | 15 W/m² | - |
| 1777642001 | 12.22° C | 93% | 1014.8 hPa | 0 mm | - | 3 W/m² | - |
| 1777639461 | 12.22° C | 92% | 1014.7 hPa | 0 mm | - | 0 W/m² | - |
| 1777629038 | 12.22° C | 92% | 1014.8 hPa | 0 mm | - | 0 W/m² | - |
| 1777628658 | 12.22° C | 92% | 1014.8 hPa | 0 mm | - | 0 W/m² | - |
| 1777628298 | 12.22° C | 92% | 1014.8 hPa | 0 mm | - | 0 W/m² | - |
| 1777627941 | 12.22° C | 91% | 1014.9 hPa | 0 mm | - | 0 W/m² | - |
| 1777625062 | 12.22° C | 91% | 1015.2 hPa | 0 mm | - | 0 W/m² | - |
| 1777624339 | 12.22° C | 91% | 1015.3 hPa | 0 mm | - | 0 W/m² | - |
| 1777623979 | 12.22° C | 91% | 1015.4 hPa | 0 mm | - | 0 W/m² | - |
| 1777622180 | 12.22° C | 91% | 1015.5 hPa | 0 mm | - | 0 W/m² | - |
| 1777621463 | 12.22° C | 91% | 1015.6 hPa | 0 mm | - | 0 W/m² | - |
| 1777620740 | 12.22° C | 91% | 1015.6 hPa | 0 mm | - | 0 W/m² | - |
| 1777617138 | 12.22° C | 92% | 1015.5 hPa | 0 mm | - | 0 W/m² | - |
| 1777616079 | 12.22° C | 91% | 1015.5 hPa | 0 mm | - | 0 W/m² | - |
* Rain latest hour (hover to see other rain measurements)
** Current wind speed in m/s (hover to see current wind gust speed)